{"data":{"norad_id":62070,"epoch":"2026-09-21T12:19:41.532960Z","epoch_age_seconds":93832,"freshness":"FRESH","line1":"1 62070U 24217P   26264.51367515  .00012487  00000+0  38010-3 0  9990","line2":"2 62070  53.1599   0.7161 0001371  88.5752 271.5408 15.34400162103457","mean_motion":15.34400162,"eccentricity":0.0001371,"inclination_deg":53.1599,"raan_deg":0.7161,"arg_perigee_deg":88.5752,"mean_anomaly_deg":271.5408,"bstar":0.0003801,"rev_number":10345,"period_min":93.847748173009,"perigee_km":461.76487957809,"apogee_km":463.64063783993,"semimajor_km":6840.839758709,"source":"CELESTRAK","updated_at":"2026-09-22T09:00:49.494307Z"}}